This is the latest recevied weather packets stored in our database for station/object KV9E. If no packets are shown the sender has not sent any weather packets the latest 10 day(s).
| Time | Temp. | Humidity | Pressure | Rain* | Wind** | Luminosity | Snow |
|---|---|---|---|---|---|---|---|
| 1778376974 | 16.67° C | 71% | 1012.1 hPa | 0 mm | - | 0 W/m² | - |
| 1778376669 | 16.67° C | 71% | 1012.3 hPa | 0 mm | - | 0 W/m² | - |
| 1778376368 | 16.67° C | 71% | 1012.1 hPa | 0 mm | - | 0 W/m² | - |
| 1778376066 | 16.67° C | 71% | 1012.1 hPa | 0 mm | - | 0 W/m² | - |
| 1778375765 | 16.67° C | 72% | 1011.9 hPa | 0 mm | - | 0 W/m² | - |
| 1778375461 | 16.67° C | 71% | 1011.7 hPa | 0 mm | - | 0 W/m² | - |
| 1778375157 | 16.67° C | 72% | 1011.7 hPa | 0 mm | - | 0 W/m² | - |
| 1778374855 | 16.67° C | 72% | 1011.8 hPa | 0 mm | - | 0 W/m² | - |
| 1778374550 | 16.67° C | 72% | 1011.6 hPa | 0 mm | - | 0 W/m² | - |
| 1778374248 | 16.67° C | 72% | 1011.6 hPa | 0 mm | - | 0 W/m² | - |
| 1778373946 | 16.67° C | 74% | 1011.6 hPa | 0 mm | - | 1 W/m² | - |
| 1778373644 | 16.67° C | 73% | 1011.8 hPa | 0 mm | - | 1 W/m² | - |
| 1778373340 | 17.22° C | 74% | 1011.7 hPa | 0 mm | - | 3 W/m² | - |
| 1778373036 | 17.22° C | 73% | 1011.6 hPa | 0 mm | - | 5 W/m² | - |
| 1778372731 | 17.78° C | 72% | 1011.8 hPa | 0 mm | - | 8 W/m² | - |
| 1778372428 | 17.78° C | 72% | 1011.3 hPa | 0 mm | - | 10 W/m² | - |
| 1778372126 | 18.33° C | 71% | 1011.2 hPa | 0 mm | - | 15 W/m² | - |
| 1778371824 | 18.33° C | 71% | 1011.2 hPa | 0 mm | - | 18 W/m² | - |
| 1778371519 | 18.33° C | 71% | 1011.1 hPa | 0 mm | - | 22 W/m² | - |
| 1778371216 | 18.89° C | 70% | 1011.2 hPa | 0 mm | - | 26 W/m² | - |
| 1778370913 | 18.89° C | 69% | 1011.1 hPa | 0 mm | - | 28 W/m² | - |
| 1778370609 | 19.44° C | 68% | 1011 hPa | 0 mm | - | 36 W/m² | - |
| 1778370306 | 19.44° C | 67% | 1010.9 hPa | 0 mm | - | 42 W/m² | - |
| 1778370004 | 19.44° C | 66% | 1010.9 hPa | 0 mm | - | 45 W/m² | - |
| 1778369701 | 19.44° C | 67% | 1011.2 hPa | 0 mm | - | 47 W/m² | - |
* Rain latest hour (hover to see other rain measurements)
** Current wind speed in m/s (hover to see current wind gust speed)